Погода в Пучеже

Россия / Ивановская область     56°58′55″N   43°10′06″E
темп.,
°C
ветер,
м/с
пор.,
м/с
влажн.,
%
обл.,
%
осадки,
мм/ч
давл.,
гПа
погр.,
м
12 апреля, пн
пн1200:00+1вюв119781 0.0 103511
03:00+1юв239881 0.1 103642
06:00+1в3497100 0.0 103752
09:00+4юв4691100 0.0 103882
12:00+6вюв4684100 0.0 1037147
15:00+7вюв4783100 0.0 1036169
18:00+6вюв5890100 0.0 1035119
21:00+4вюв4897100 0.0 1035105
13 апреля, вт
вт1300:00+4юв4897100 0.0 1034121
03:00+3юв4797100 0.0 103384
06:00+3юв479881 0.0 103275
09:00+5ююв4793100 0.0 103181
12:00+8ююв5880100 0.0 1030127
15:00+9ю586495 0.0 1029212
18:00+8ююв447373 0.0 102839
21:00+6ююв458157 0.0 102842
14 апреля, ср
ср1400:00+5ю348463 0.0 102838
03:00+4ююв448681 0.0 102738
06:00+3ююв348881 0.0 102741
09:00+6ююв467919 0.0 102772
12:00+8ююв576862 0.0 1025143
15:00+10ююв476066 0.0 1024256
18:00+9ююв346784 0.0 102233
21:00+6ююв4474100 0.0 102233
15 апреля, чт
чт1500:00+5ю3379100 0.0 102223
03:00+4ю3381100 0.0 102116
06:00+4ю338289 0.0 102116
09:00+5ю347773 0.0 102059
12:00+7ю236834 0.0 1020134
15:00+8юв12643 0.0 1018209
18:00+8в11650 0.0 101711
21:00+7в11685 0.0 101710
16 апреля, пт
пт1600:00+5ссв22767 0.0 101713
03:00+4ссв4498100 0.0 101744
06:00+3с4699100 0.0 101791
09:00+4с6992100 0.0 1019178
12:00+3с71193100 0.6 1021242
15:00+5ссв596899 1.1 1021315
18:00+5ссв510610 0.0 1023255
21:00+1с34730 0.0 102447